Location: Church Tower
(37.7144°N, 119.6316°W)
Time: 19:00:39
(UTC+00:00)

SJ 16-02 - Pass Details

Date: 15 November 2025
Orbit: 585 x 594 km, 75.0° (Epoch: 08 December)

Event Time Altitude Azimuth Distance (km) Brightness Sun altitude
Exits shadow 13:30:47 14° 323° (NW) 1,646 3.1 -13.7°
Maximum altitude 13:34:00 39° 259° (W) 893 1.7 -13.0°
Drops below altitude 10° 13:37:57 10° 190° (S) 1,902 3.9 -12.3°
Sets 13:40:15 0° 183° (S) 2,796 4.9 -11.8°
